| time (UTC) | temp F | wind direction | speed knots | gust knots | rain 1hr in | rain 24hr in | rain mn in | humidity % | barometer mb |
| 20260902165233 | 78 | 213 | 0.0 | 0.0 | 0.00 | 0.00 | 0.00 | 65 | 1015.0 |
| 20260902164739 | 78 | 213 | 0.0 | 0.0 | 0.00 | 0.00 | 0.00 | 64 | 1015.0 |
| 20260902164239 | 78 | 213 | 0.0 | 0.0 | 0.00 | 0.00 | 0.00 | 64 | 1014.9 |
| 20260902163735 | 78 | 213 | 0.0 | 0.0 | 0.00 | 0.00 | 0.00 | 63 | 1014.9 |
| 20260902163223 | 79 | 195 | 0.0 | 0.0 | 0.00 | 0.00 | 0.00 | 63 | 1014.9 |
| 20260902162741 | 79 | 195 | 0.0 | 0.0 | 0.00 | 0.00 | 0.00 | 62 | 1014.9 |
| 20260902162237 | 79 | 195 | 0.0 | 0.0 | 0.00 | 0.00 | 0.00 | 62 | 1015.0 |
| 20260902161233 | 79 | 195 | 0.0 | 3.5 | 0.00 | 0.00 | 0.00 | 62 | 1014.9 |
| 20260902160731 | 79 | 195 | 1.7 | 4.3 | 0.00 | 0.00 | 0.00 | 61 | 1014.9 |
| 20260902160228 | 79 | 196 | 2.6 | 4.3 | 0.00 | 0.00 | 0.00 | 61 | 1015.0 |
| 20260902155733 | 79 | 213 | 2.6 | 3.5 | 0.00 | 0.00 | 0.00 | 61 | 1014.9 |
| 20260902155239 | 79 | 189 | 1.7 | 5.2 | 0.00 | 0.00 | 0.00 | 61 | 1014.9 |
| 20260902154724 | 79 | 195 | 2.6 | 5.2 | 0.00 | 0.00 | 0.00 | 60 | 1014.8 |
| 20260902154240 | 79 | 192 | 0.9 | 7.0 | 0.00 | 0.00 | 0.00 | 61 | 1014.9 |
| 20260902153729 | 80 | 200 | 3.5 | 10.4 | 0.00 | 0.00 | 0.00 | 60 | 1014.9 |
| 20260902153247 | 80 | 236 | 2.6 | 9.6 | 0.00 | 0.00 | 0.00 | 60 | 1014.9 |
| 20260902152227 | 80 | 194 | 5.2 | 8.7 | 0.00 | 0.00 | 0.00 | 59 | 1015.0 |
| 20260902151803 | 81 | 229 | 0.9 | 8.7 | 0.00 | 0.00 | 0.00 | 60 | 1015.0 |
| 20260902151240 | 81 | 197 | 2.6 | 9.6 | 0.00 | 0.00 | 0.00 | 58 | 1015.0 |
| 20260902150736 | 81 | 248 | 7.0 | 9.6 | 0.00 | 0.00 | 0.00 | 57 | 1015.1 |
| 20260902150242 | 82 | 197 | 3.5 | 8.7 | 0.00 | 0.00 | 0.00 | 58 | 1015.2 |
| 20260902145737 | 82 | 181 | 5.2 | 8.7 | 0.00 | 0.00 | 0.00 | 57 | 1015.1 |
| 20260902145234 | 82 | 211 | 3.5 | 6.1 | 0.00 | 0.00 | 0.00 | 57 | 1015.2 |
| 20260902144728 | 82 | 235 | 3.5 | 8.7 | 0.00 | 0.00 | 0.00 | 56 | 1015.2 |
| 20260902144227 | 82 | 180 | 4.3 | 8.7 | 0.00 | 0.00 | 0.00 | 57 | 1015.2 |
| 20260902143758 | 81 | 143 | 6.1 | 9.6 | 0.00 | 0.00 | 0.00 | 56 | 1015.2 |
| 20260902143232 | 81 | 157 | 6.1 | 9.6 | 0.00 | 0.00 | 0.00 | 55 | 1015.2 |
| 20260902142737 | 81 | 153 | 4.3 | 7.0 | 0.00 | 0.00 | 0.00 | 57 | 1015.2 |
| 20260902142241 | 81 | 162 | 4.3 | 10.4 | 0.00 | 0.00 | 0.00 | 58 | 1015.3 |
| 20260902141740 | 81 | 221 | 7.0 | 10.4 | 0.00 | 0.00 | 0.00 | 57 | 1015.4 |
| 20260902141226 | 81 | 211 | 5.2 | 9.6 | 0.00 | 0.00 | 0.00 | 57 | 1015.4 |
| 20260902140727 | 82 | 204 | 4.3 | 8.7 | 0.00 | 0.00 | 0.00 | 57 | 1015.5 |
| 20260902140302 | 81 | 178 | 3.5 | 5.2 | 0.00 | 0.00 | 0.00 | 58 | 1015.5 |
| 20260902135744 | 80 | 238 | 2.6 | 5.2 | 0.00 | 0.00 | 0.00 | 59 | 1015.5 |
| 20260902135254 | 80 | 214 | 3.5 | 6.1 | 0.00 | 0.00 | 0.00 | 57 | 1015.5 |
| 20260902134739 | 80 | 182 | 3.5 | 7.8 | 0.00 | 0.00 | 0.00 | 57 | 1015.6 |
| 20260902134230 | 80 | 167 | 3.5 | 7.8 | 0.00 | 0.00 | 0.00 | 57 | 1015.8 |
| 20260902133729 | 80 | 168 | 3.5 | 7.0 | 0.00 | 0.00 | 0.00 | 57 | 1015.6 |
| 20260902133230 | 80 | 197 | 4.3 | 7.0 | 0.00 | 0.00 | 0.00 | 57 | 1015.7 |
| 20260902132736 | 81 | 165 | 5.2 | 9.6 | 0.00 | 0.00 | 0.00 | 56 | 1015.7 |
| 20260902132240 | 80 | 183 | 6.1 | 9.6 | 0.00 | 0.00 | 0.00 | 57 | 1015.8 |
| 20260902131737 | 80 | 178 | 6.1 | 13.9 | 0.00 | 0.00 | 0.00 | 57 | 1015.9 |
| 20260902131230 | 80 | 182 | 7.0 | 13.9 | 0.00 | 0.00 | 0.00 | 56 | 1015.9 |
| 20260902130723 | 81 | 182 | 6.1 | 13.0 | 0.00 | 0.00 | 0.00 | 56 | 1016.0 |
| 20260902130241 | 81 | 156 | 5.2 | 13.9 | 0.00 | 0.00 | 0.00 | 55 | 1016.0 |
| 20260902125732 | 80 | 138 | 3.5 | 13.9 | 0.00 | 0.00 | 0.00 | 56 | 1016.0 |
| 20260902125228 | 80 | 186 | 8.7 | 14.8 | 0.00 | 0.00 | 0.00 | 56 | 1016.1 |
| 20260902124733 | 81 | 156 | 8.7 | 14.8 | 0.00 | 0.00 | 0.00 | 56 | 1016.1 |
| 20260902124223 | 81 | 168 | 7.0 | 12.2 | 0.00 | 0.00 | 0.00 | 56 | 1016.3 |
| 20260902123743 | 81 | 196 | 7.0 | 12.2 | 0.00 | 0.00 | 0.00 | 56 | 1016.3 |
| 20260902123242 | 81 | 170 | 7.8 | 10.4 | 0.00 | 0.00 | 0.00 | 55 | 1016.2 |
| 20260902122742 | 81 | 192 | 5.2 | 9.6 | 0.00 | 0.00 | 0.00 | 56 | 1016.2 |
| 20260902122206 | 81 | 203 | 5.2 | 10.4 | 0.00 | 0.00 | 0.00 | 56 | 1016.3 |
| 20260902121726 | 81 | 170 | 4.3 | 13.0 | 0.00 | 0.00 | 0.00 | 57 | 1016.5 |
| 20260902121230 | 81 | 215 | 6.1 | 13.0 | 0.00 | 0.00 | 0.00 | 57 | 1016.5 |
| 20260902120831 | 80 | 199 | 6.1 | 11.3 | 0.00 | 0.00 | 0.00 | 57 | 1016.5 |